Tracking 29892 objects as of 21-Nov-2024
HD Live streaming from Space Station
objects crossing your sky now

STARLINK-30483

Track STARLINK-30483 now!
10-day predictions
STARLINK-30483 is classified as:


NORAD ID: 57914
Int'l Code: 2023-147B
Perigee: 494.3 km
Apogee: 496.0 km
Inclination: 43.0 °
Period: 94.4 minutes
Semi major axis: 6866 km
RCS: Unknown
Launch date: September 24, 2023
Source: United States (US)
Launch site: AIR FORCE EASTERN TEST RANGE (AFETR)
Your satellite tracking list
Your tracking list is empty




NASA's NSSDC Master Catalog

Two Line Element Set (TLE):
1 57914U 23147B   24326.00039916  .00002568  00000-0  10795-3 0  9994
2 57914  42.9946 331.3963 0001271  78.2934 281.8060 15.25915746 65825
Source of the keplerian elements: AFSPC